SWA3555 KTPA-KDCA

Flight info

Callsign SWA3555
Flight time N/A
Altitude 37000
Route BAYPO2 CAMJO Q99 OGRAE FUUFF WAVES CAPSS4
Aircraft B738/M-SDE2E3FGHIRWXY/LB1

Departure

Time N/A
Airport Tampa International Airport (KTPA)

Arrival

Time 2026-04-26 23:51
Airport Ronald Reagan Washington National Airport (KDCA)
Time Latitude Longitude Altitude Speed Heading
2026-04-26 23:12 35.57878 -79.33006 37105 ft 458 kts 30°
2026-04-26 23:12 35.63093 -79.28497 37109 ft 459 kts 30°
2026-04-26 23:13 35.68324 -79.23966 37107 ft 459 kts 30°
2026-04-26 23:13 35.73551 -79.19431 37107 ft 460 kts 31°
2026-04-26 23:14 35.77623 -79.15151 37133 ft 466 kts 40°
2026-04-26 23:14 35.82963 -79.08558 37107 ft 467 kts 41°
2026-04-26 23:15 35.86770 -79.03837 37102 ft 467 kts 41°
2026-04-26 23:15 35.91380 -78.98196 37125 ft 466 kts 40°
2026-04-26 23:16 35.96003 -78.92576 37112 ft 466 kts 40°
2026-04-26 23:16 36.00630 -78.86948 37120 ft 466 kts 40°
2026-04-26 23:17 36.05248 -78.81319 37116 ft 466 kts 40°
2026-04-26 23:17 36.09859 -78.75686 37106 ft 466 kts 41°
2026-04-26 23:18 36.14462 -78.70052 37130 ft 465 kts 41°
2026-04-26 23:18 36.19037 -78.64443 37125 ft 465 kts 41°
2026-04-26 23:19 36.23635 -78.58796 37154 ft 465 kts 41°
2026-04-26 23:19 36.28235 -78.53136 37151 ft 466 kts 41°
2026-04-26 23:20 36.32827 -78.47476 37146 ft 465 kts 41°
2026-04-26 23:20 36.37420 -78.41804 37147 ft 465 kts 41°
2026-04-26 23:21 36.42106 -78.36288 37135 ft 462 kts 33°
2026-04-26 23:21 36.47486 -78.32011 37141 ft 458 kts 27°
2026-04-26 23:22 36.52911 -78.27931 37131 ft 458 kts 28°
2026-04-26 23:22 36.58346 -78.23786 37194 ft 458 kts 28°
2026-04-26 23:23 36.63768 -78.19595 37210 ft 458 kts 28°
2026-04-26 23:23 36.69191 -78.15380 37227 ft 458 kts 28°
2026-04-26 23:24 36.74595 -78.11171 37218 ft 458 kts 28°
2026-04-26 23:24 36.79958 -78.06990 37213 ft 457 kts 28°
2026-04-26 23:25 36.85350 -78.02780 37201 ft 457 kts 28°
2026-04-26 23:25 36.90734 -77.98569 37158 ft 456 kts 28°
2026-04-26 23:26 36.96095 -77.94367 37138 ft 446 kts 29°
2026-04-26 23:26 36.98684 -77.92332 37067 ft 433 kts 29°
2026-04-26 23:26 37.01215 -77.90342 36749 ft 428 kts 29°
2026-04-26 23:26 37.03751 -77.88352 35953 ft 434 kts 29°
2026-04-26 23:27 37.06336 -77.86325 35081 ft 443 kts 29°
2026-04-26 23:27 37.08962 -77.84263 34296 ft 448 kts 30°
2026-04-26 23:27 37.11613 -77.82177 33517 ft 450 kts 30°
2026-04-26 23:27 37.14270 -77.80082 32727 ft 452 kts 30°
2026-04-26 23:28 37.16940 -77.77975 31918 ft 454 kts 30°
2026-04-26 23:28 37.19572 -77.75895 31103 ft 451 kts 30°
2026-04-26 23:28 37.22226 -77.73796 30041 ft 451 kts 30°
2026-04-26 23:28 37.24887 -77.71692 28868 ft 451 kts 30°
2026-04-26 23:29 37.27531 -77.69598 28151 ft 446 kts 30°
2026-04-26 23:29 37.30143 -77.67528 27508 ft 441 kts 30°
2026-04-26 23:29 37.32723 -77.65481 26933 ft 435 kts 31°
2026-04-26 23:29 37.35270 -77.63459 26351 ft 430 kts 31°
2026-04-26 23:30 37.37780 -77.61465 25800 ft 424 kts 31°
2026-04-26 23:30 37.40264 -77.59492 25249 ft 420 kts 31°
2026-04-26 23:30 37.42689 -77.57563 24711 ft 415 kts 31°
2026-04-26 23:30 37.45114 -77.55632 24174 ft 411 kts 31°
2026-04-26 23:31 37.47521 -77.53715 23620 ft 407 kts 31°
2026-04-26 23:31 37.49899 -77.51818 22994 ft 403 kts 31°
2026-04-26 23:31 37.52251 -77.49941 22449 ft 397 kts 31°
2026-04-26 23:31 37.54554 -77.48102 22289 ft 383 kts 31°
2026-04-26 23:32 37.56771 -77.46329 22095 ft 371 kts 31°
2026-04-26 23:32 37.58963 -77.44713 21898 ft 359 kts 22°
2026-04-26 23:32 37.61338 -77.43883 21626 ft 350 kts 12°
2026-04-26 23:32 37.63712 -77.43207 21180 ft 348 kts 12°
2026-04-26 23:33 37.66057 -77.42509 20764 ft 345 kts 13°
2026-04-26 23:33 37.68355 -77.41810 20352 ft 343 kts 13°
2026-04-26 23:33 37.70672 -77.41098 19936 ft 341 kts 13°
2026-04-26 23:33 37.72975 -77.40388 19528 ft 339 kts 13°
2026-04-26 23:34 37.75262 -77.39682 19116 ft 337 kts 13°
2026-04-26 23:34 37.77535 -77.38979 18712 ft 336 kts 13°
2026-04-26 23:34 37.79807 -77.38277 18278 ft 335 kts 13°
2026-04-26 23:34 37.82068 -77.37578 17827 ft 333 kts 13°
2026-04-26 23:35 37.84321 -77.36881 17290 ft 334 kts 13°
2026-04-26 23:35 37.86576 -77.36183 16838 ft 332 kts 13°
2026-04-26 23:35 37.88788 -77.35497 16411 ft 331 kts 13°
2026-04-26 23:35 37.91019 -77.34808 15993 ft 329 kts 13°
2026-04-26 23:36 37.93238 -77.34126 15580 ft 327 kts 13°
2026-04-26 23:36 37.95440 -77.33449 15180 ft 325 kts 13°
2026-04-26 23:36 37.97631 -77.32775 14781 ft 323 kts 13°
2026-04-26 23:36 37.99807 -77.32105 14385 ft 321 kts 13°
2026-04-26 23:37 38.01977 -77.31437 13989 ft 320 kts 13°
2026-04-26 23:37 38.04135 -77.30771 13537 ft 318 kts 13°
2026-04-26 23:37 38.06281 -77.30109 13117 ft 317 kts 13°
2026-04-26 23:37 38.08413 -77.29447 12772 ft 314 kts 13°
2026-04-26 23:38 38.10533 -77.28782 12446 ft 314 kts 13°
2026-04-26 23:38 38.12661 -77.28112 12139 ft 315 kts 13°
2026-04-26 23:38 38.14789 -77.27443 11820 ft 315 kts 13°
2026-04-26 23:38 38.16921 -77.26772 11508 ft 316 kts 13°
2026-04-26 23:39 38.19041 -77.26105 11193 ft 312 kts 13°
2026-04-26 23:39 38.21135 -77.25445 10877 ft 307 kts 13°
2026-04-26 23:39 38.23195 -77.24791 10569 ft 303 kts 13°
2026-04-26 23:39 38.25201 -77.24153 10270 ft 299 kts 13°
2026-04-26 23:40 38.27197 -77.23518 9957 ft 290 kts 13°
2026-04-26 23:40 38.29085 -77.22917 9935 ft 269 kts 13°
2026-04-26 23:40 38.30858 -77.22353 9519 ft 264 kts 13°
2026-04-26 23:40 38.32617 -77.21793 9179 ft 259 kts 14°
2026-04-26 23:41 38.34249 -77.20840 8880 ft 260 kts 35°
2026-04-26 23:41 38.35622 -77.19352 8616 ft 258 kts 39°
2026-04-26 23:41 38.36955 -77.17837 8334 ft 256 kts 40°
2026-04-26 23:41 38.38272 -77.16334 8064 ft 254 kts 40°
2026-04-26 23:42 38.39572 -77.14855 7798 ft 253 kts 40°
2026-04-26 23:42 38.42180 -77.11897 7267 ft 249 kts 40°
2026-04-26 23:42 38.43470 -77.10437 7022 ft 247 kts 40°
2026-04-26 23:43 38.44760 -77.08979 6751 ft 246 kts 41°
2026-04-26 23:43 38.46043 -77.07529 6485 ft 245 kts 41°
2026-04-26 23:43 38.47312 -77.06094 6209 ft 243 kts 41°
2026-04-26 23:43 38.48573 -77.04667 5939 ft 241 kts 41°
2026-04-26 23:44 38.49823 -77.03254 5687 ft 239 kts 41°
2026-04-26 23:44 38.51077 -77.01867 5427 ft 238 kts 37°
2026-04-26 23:44 38.52608 -77.01093 5179 ft 239 kts 12°
2026-04-26 23:44 38.54269 -77.01000 4929 ft 241 kts
2026-04-26 23:45 38.55943 -77.01126 4680 ft 240 kts 360°
2026-04-26 23:45 38.57606 -77.01275 4411 ft 239 kts 360°
2026-04-26 23:45 38.59257 -77.01416 4162 ft 238 kts 360°
2026-04-26 23:45 38.60908 -77.01547 3902 ft 236 kts 360°
2026-04-26 23:46 38.62543 -77.01669 3650 ft 234 kts 360°
2026-04-26 23:46 38.64145 -77.01783 3412 ft 232 kts 359°
2026-04-26 23:46 38.65713 -77.01895 3346 ft 218 kts 359°
2026-04-26 23:46 38.67183 -77.01999 3220 ft 205 kts 359°
2026-04-26 23:47 38.68569 -77.02107 3096 ft 193 kts 359°
2026-04-26 23:47 38.69891 -77.02232 2849 ft 188 kts 358°
2026-04-26 23:47 38.71182 -77.02361 2601 ft 183 kts 358°
2026-04-26 23:47 38.72442 -77.02489 2354 ft 183 kts 358°
2026-04-26 23:48 38.73717 -77.02617 2124 ft 184 kts 358°
2026-04-26 23:48 38.74938 -77.02743 1869 ft 168 kts 358°
2026-04-26 23:48 38.76032 -77.02854 1643 ft 152 kts 359°
2026-04-26 23:48 38.77023 -77.02954 1480 ft 139 kts 359°
2026-04-26 23:49 38.77979 -77.03050 1277 ft 137 kts 359°
2026-04-26 23:49 38.78933 -77.03146 1083 ft 136 kts 359°
2026-04-26 23:49 38.79889 -77.03245 899 ft 139 kts 359°
2026-04-26 23:49 38.80852 -77.03337 685 ft 139 kts
2026-04-26 23:50 38.81817 -77.03441 517 ft 140 kts 358°
2026-04-26 23:50 38.82789 -77.03540 308 ft 137 kts 359°
2026-04-26 23:50 38.83262 -77.03589 218 ft 136 kts
2026-04-26 23:50 38.84193 -77.03684 52 ft 134 kts 359°
2026-04-26 23:51 38.85007 -77.03762 24 ft 77 kts 355°
2026-04-26 23:51 38.85244 -77.03810 22 ft 19 kts 314°
2026-04-26 23:51 38.85260 -77.03913 23 ft 7 kts 255°
2026-04-26 23:51 38.85253 -77.03927 26 ft 2 kts 217°
2026-04-26 23:52 38.85222 -77.03929 25 ft 7 kts 176°
2026-04-26 23:52 38.85164 -77.03923 23 ft 8 kts 174°
2026-04-26 23:52 38.85108 -77.03915 27 ft 8 kts 175°
2026-04-26 23:52 38.85051 -77.03908 23 ft 8 kts 174°
2026-04-26 23:53 38.84995 -77.03902 24 ft 8 kts 175°
2026-04-26 23:53 38.84941 -77.03897 23 ft 8 kts 175°
2026-04-26 23:53 38.84886 -77.03908 23 ft 9 kts 221°
2026-04-26 23:53 38.84823 -77.03942 23 ft 11 kts 185°
2026-04-26 23:54 38.84752 -77.03966 24 ft 11 kts 204°
2026-04-26 23:54 38.84687 -77.04006 23 ft 10 kts 206°
2026-04-26 23:54 38.84624 -77.04048 24 ft 10 kts 216°
2026-04-26 23:54 38.84587 -77.04120 25 ft 10 kts 253°
2026-04-26 23:55 38.84572 -77.04203 25 ft 10 kts 257°
2026-04-26 23:55 38.84566 -77.04287 23 ft 9 kts 282°
2026-04-26 23:55 38.84599 -77.04309 23 ft 5 kts 28°
2026-04-26 23:55 38.84619 -77.04295 23 ft 3 kts 28°
2026-04-26 23:56 38.84625 -77.04291 25 ft 0 kts 28°